Skip Page Navigation
NASA JPL Caltech
NASA Logo - Jet Propulsion Laboratory + View the NASA Portal
+ Center for Near-Earth Object Studies
JPL Home Earth Solar System Stars & Galaxies Technology
JPL Solar System Dynamics
BODIES ORBITS EPHEMERIDES TOOLS PHYSICAL DATA DISCOVERY FAQ SITE MAP
IMPORTANT: The SSD Announcement email list is now available. Major changes are coming in the near future, including possible hostname and/or URL changes. To be notified of such changes, subscribe to this email list.

Please visit this page for more details.


JPL Small-Body Database Browser
Search: [ help ]  
39088 (2000 VO50)
Classification: Main-belt Asteroid          SPK-ID: 2039088
Ephemeris | Orbit Diagram | Orbital Elements | Mission Design | Physical Parameters | Discovery Circumstances | Close-Approach Data ]

[ show orbit diagram ]
Orbital Elements at Epoch 2459000.5 (2020-May-31.0) TDB
Reference: JPL 24 (heliocentric ecliptic J2000)
 Element Value Uncertainty (1-sigma)   Units 
e .1195218155523253 3.362e-08  
a 2.306081555056155 9.3751e-09 au
q 2.030454500784114 7.9304e-08 au
i 5.923252652096291 4.0445e-06 deg
node 248.7110605768241 4.3565e-05 deg
peri 24.63719582357691 4.8785e-05 deg
M .7028651673741126 2.4402e-05 deg
tp 2458998.002646963683
(2020-May-28.50264696)
8.6699e-05 TDB
period 1279.117439313434
3.50
7.8002e-06
2.136e-08
d
yr
n .2814440558274539 1.7163e-09 deg/d
Q 2.581708609328196 1.0496e-08 au
  Orbit Determination Parameters
   # obs. used (total)      1288  
   data-arc span      11364 days (31.11 yr)  
   first obs. used      1988-04-12  
   last obs. used      2019-05-24  
   planetary ephem.      DE431  
   SB-pert. ephem.      SB431-N16  
   condition code      0  
   norm. resid. RMS      .517  
   source      ORB  
   producer      Otto Matic  
   solution date      2020-Feb-23 05:05:39  

Additional Information
 Earth MOID = 1.01597 au 
 Jupiter MOID = 2.5029 au 
 T_jup = 3.571 
[ show covariance matrix ]

Ephemeris | Orbit Diagram | Orbital Elements | Mission Design | Physical Parameters | Discovery Circumstances | Close-Approach Data ]

Physical Parameter Table
Parameter Symbol Value Units Sigma Reference Notes
absolute magnitude H 15.0   n/a MPO381559  
rotation period rot_per 5.373 h n/a LCDB (Rev. 2019-August); Warner et al., 2009 Result based on less than full coverage, so that the period may be wrong by 30 percent or so.
Published Reference List:
[Waszczak, A.; Chang, C.-K.; Ofeck, E.O.; Laher, F.; et al. (2015) Astron. J. 150, A75.]

39088 (2000 VO50)          Discovered 2000-Nov-02 by LINEAR at Socorro
Reference: 20020328/Numbers.arcLast Updated: 2004-04-19

[ show close-approach data ]
Alternate Designations
 2000 VO50 = 1988 GQ1 = 1999 NJ47 
Ephemeris | Orbit Diagram | Orbital Elements | Mission Design | Physical Parameters | Discovery Circumstances | Close-Approach Data ]
ABOUT SSD CREDITS/AWARDS PRIVACY/COPYRIGHT GLOSSARY LINKS
FirstGov 2020-Apr-07 01:40 UT
(server date/time)  
NASA Home Page
Site Manager:   Ryan S. Park
Webmaster  Alan B. Chamberlin